Find Meteor-2

NORAD ID: 12456 Int'l Des: 1981-043 Owner: GUKOS/GMS Country: SU operational
LEOCIRCULARPOLAR

实时位置

正在加载3D地球...

关于 Meteor-2

正在加载描述...

即将过境

Passes for default location (London). Set your location on the main map for personalized predictions.

高度历史

Loading altitude history...

两行轨道根数

1 12456U 81043A 26104.59123137 .00000037 00000-0 13702-4 0 9995
2 12456 81.2665 160.9406 0046382 311.8751 47.8467 14.11042509310088
Epoch: Apr 14, 2026 • Age: 11 hours

当前状态

高度 869.9 km
速度 7.42 km/s
星下点 -46.42°S, 124.34°E
发射日期 May 14, 1981
运行时间 44.9 years
类型 other

技术详情

分类 Payload
质量 1500.00 kg
干质量 1500.00 kg
总质量 1500.00 kg
长度 4.50 m
直径 1.40 m
跨度 4.50 m
形状 Cyl + 2 Pan
制造商 VNIEM
平台类型 Meteor-2
阶段状态 In Orbit
所有者/国家 GUKOS/GMS/SU

Most Searched